Location: Cahoon Acres
(40.8736°N, 111.8994°W)
Time: 10:26:49
(UTC+00:00)

SR - Pass Details

Date: 09 June 2020
Orbit: 583 x 872 km, 66.7° (Epoch: 03 July)

Event Time Altitude Azimuth Distance (km) Brightness Sun altitude
Rises 21:05:15 0° 239° (WSW) 3,251 ? 62.7°
Reaches altitude 10° 21:08:04 10° 251° (WSW) 2,276 ? 62.3°
Maximum altitude 21:12:26 27° 309° (NW) 1,357 ? 61.6°
Drops below altitude 10° 21:16:33 10° 7° (N) 2,122 ? 60.9°
Sets 21:19:06 0° 20° (NNE) 2,990 ? 60.5°
